EZS43RY DTTJ-LSGG

Flight info

Callsign EZS43RY
Flight time 2h 9m
Altitude 28000
Route KBIRA1A KBIRA V334 NEDOS UV334 TBK UM858 DOPEL DCT CAR DCT UPDUT DCT CORSI DCT OMEDA DCT MERLU DCT PIGOS DCT BARSO DCT IRMAR DCT KINES
Aircraft A320/M-SDE2E3FGHIJ1RWXYZ/LB1

Departure

Time 2026-05-04 14:51
Airport Djerba Zarzis International Airport (DTTJ)

Arrival

Time 2026-05-04 17:00
Airport Geneva International Airport (LSGG)
Time Latitude Longitude Altitude Speed Heading
2026-05-04 14:11 33.87316 10.77530 27 ft 0 kts 177°
2026-05-04 14:40 33.87342 10.77529 27 ft 4 kts 179°
2026-05-04 14:40 33.87371 10.77532 26 ft 4 kts 216°
2026-05-04 14:40 33.87382 10.77556 26 ft 4 kts 266°
2026-05-04 14:40 33.87383 10.77567 26 ft 0 kts 268°
2026-05-04 14:47 33.87382 10.77543 26 ft 7 kts 268°
2026-05-04 14:48 33.87380 10.77450 27 ft 15 kts 268°
2026-05-04 14:48 33.87373 10.77302 27 ft 18 kts 263°
2026-05-04 14:48 33.87364 10.77159 27 ft 16 kts 268°
2026-05-04 14:48 33.87361 10.77020 27 ft 19 kts 269°
2026-05-04 14:49 33.87356 10.76840 24 ft 25 kts 268°
2026-05-04 14:49 33.87348 10.76604 20 ft 30 kts 266°
2026-05-04 14:49 33.87341 10.76347 21 ft 31 kts 268°
2026-05-04 14:49 33.87341 10.76101 16 ft 21 kts 282°
2026-05-04 14:50 33.87420 10.76052 21 ft 11 kts
2026-05-04 14:50 33.87495 10.76072 23 ft 14 kts 36°
2026-05-04 14:50 33.87508 10.76113 23 ft 1 kts 89°
2026-05-04 14:50 33.87513 10.76336 20 ft 64 kts 88°
2026-05-04 14:51 33.87533 10.77130 24 ft 123 kts 88°
2026-05-04 14:51 33.87550 10.78347 128 ft 159 kts 91°
2026-05-04 14:51 33.87621 10.79649 804 ft 159 kts 76°
2026-05-04 14:51 33.88193 10.80842 1332 ft 180 kts 46°
2026-05-04 14:52 33.89396 10.81521 1709 ft 210 kts
2026-05-04 14:52 33.90858 10.81052 2214 ft 228 kts 321°
2026-05-04 14:52 33.91883 10.79608 3007 ft 228 kts 304°
2026-05-04 14:52 33.92781 10.78039 3819 ft 228 kts 303°
2026-05-04 14:53 33.93665 10.76453 4615 ft 229 kts 302°
2026-05-04 14:53 33.94553 10.74852 5378 ft 231 kts 302°
2026-05-04 14:53 33.95452 10.73236 6117 ft 234 kts 303°
2026-05-04 14:53 33.96535 10.71803 6798 ft 238 kts 325°
2026-05-04 14:54 33.98001 10.70862 7480 ft 242 kts 334°
2026-05-04 14:54 33.99593 10.69945 7805 ft 265 kts 334°
2026-05-04 14:54 34.01322 10.68951 8264 ft 282 kts 334°
2026-05-04 14:54 34.03107 10.67925 9021 ft 286 kts 333°
2026-05-04 14:55 34.04912 10.66886 9861 ft 288 kts 334°
2026-05-04 14:55 34.06742 10.65832 10461 ft 299 kts 333°
2026-05-04 14:55 34.08688 10.64707 10731 ft 320 kts 333°
2026-05-04 14:55 34.10780 10.63680 11301 ft 329 kts 340°
2026-05-04 14:56 34.12972 10.62820 11996 ft 333 kts 340°
2026-05-04 14:56 34.15167 10.61989 12682 ft 338 kts 341°
2026-05-04 14:56 34.17428 10.61149 13383 ft 342 kts 341°
2026-05-04 14:56 34.19713 10.60308 14059 ft 345 kts 341°
2026-05-04 14:57 34.22015 10.59459 14668 ft 348 kts 341°
2026-05-04 14:57 34.24334 10.58601 15303 ft 350 kts 341°
2026-05-04 14:57 34.26667 10.57731 15946 ft 351 kts 340°
2026-05-04 14:57 34.29006 10.56852 16590 ft 353 kts 340°
2026-05-04 14:58 34.31354 10.55969 17233 ft 355 kts 340°
2026-05-04 14:58 34.33686 10.55087 17863 ft 357 kts 340°
2026-05-04 14:58 34.36063 10.54189 18488 ft 358 kts 339°
2026-05-04 14:58 34.38451 10.53290 19019 ft 361 kts 339°
2026-05-04 14:59 34.40857 10.52383 19537 ft 363 kts 339°
2026-05-04 14:59 34.43277 10.51468 20049 ft 366 kts 339°
2026-05-04 14:59 34.48171 10.49619 21064 ft 371 kts 339°
2026-05-04 15:00 34.50644 10.48687 21566 ft 374 kts 339°
2026-05-04 15:00 34.53135 10.47745 22046 ft 376 kts 339°
2026-05-04 15:00 34.55608 10.46808 22518 ft 379 kts 339°
2026-05-04 15:01 34.60681 10.44887 23439 ft 385 kts 338°
2026-05-04 15:01 34.63249 10.43915 23850 ft 388 kts 338°
2026-05-04 15:01 34.65828 10.42937 24235 ft 390 kts 338°
2026-05-04 15:01 34.68427 10.41952 24616 ft 392 kts 338°
2026-05-04 15:02 34.71035 10.40960 24985 ft 394 kts 338°
2026-05-04 15:02 34.73656 10.39963 25356 ft 396 kts 338°
2026-05-04 15:02 34.76258 10.38973 25720 ft 398 kts 338°
2026-05-04 15:02 34.78909 10.37962 26092 ft 400 kts 338°
2026-05-04 15:03 34.81572 10.36947 26457 ft 402 kts 338°
2026-05-04 15:03 34.84250 10.35926 26796 ft 405 kts 338°
2026-05-04 15:03 34.86946 10.34900 27141 ft 407 kts 338°
2026-05-04 15:03 34.89651 10.33871 27476 ft 409 kts 338°
2026-05-04 15:04 34.92372 10.32833 27816 ft 411 kts 338°
2026-05-04 15:04 34.95105 10.31788 28158 ft 413 kts 338°
2026-05-04 15:04 34.97856 10.30737 28500 ft 415 kts 338°
2026-05-04 15:04 35.00580 10.29698 28822 ft 417 kts 338°
2026-05-04 15:05 35.03349 10.28641 29144 ft 419 kts 338°
2026-05-04 15:05 35.06139 10.27574 29459 ft 421 kts 338°
2026-05-04 15:05 35.08940 10.26503 29798 ft 423 kts 338°
2026-05-04 15:05 35.11756 10.25426 30110 ft 425 kts 338°
2026-05-04 15:06 35.14579 10.24343 30374 ft 426 kts 337°
2026-05-04 15:06 35.17414 10.23251 30638 ft 428 kts 337°
2026-05-04 15:06 35.20258 10.22154 30895 ft 430 kts 337°
2026-05-04 15:07 35.25940 10.19963 31387 ft 433 kts 337°
2026-05-04 15:07 35.28823 10.18854 31602 ft 435 kts 337°
2026-05-04 15:07 35.31710 10.17742 31920 ft 434 kts 337°
2026-05-04 15:07 35.34587 10.16634 32285 ft 433 kts 338°
2026-05-04 15:08 35.37452 10.15528 32654 ft 431 kts 337°
2026-05-04 15:08 35.40313 10.14422 32997 ft 430 kts 337°
2026-05-04 15:08 35.43160 10.13319 33350 ft 429 kts 337°
2026-05-04 15:08 35.46004 10.12215 33699 ft 428 kts 337°
2026-05-04 15:09 35.48841 10.11114 34038 ft 427 kts 337°
2026-05-04 15:09 35.51630 10.10036 34321 ft 426 kts 337°
2026-05-04 15:09 35.54456 10.08941 34591 ft 425 kts 337°
2026-05-04 15:10 35.60085 10.06757 35106 ft 424 kts 337°
2026-05-04 15:10 35.62896 10.05668 35354 ft 423 kts 336°
2026-05-04 15:10 35.68501 10.03488 35834 ft 422 kts 336°
2026-05-04 15:11 35.71297 10.02396 35969 ft 421 kts 336°
2026-05-04 15:11 35.76779 10.00262 36007 ft 413 kts 336°
2026-05-04 15:12 35.82252 9.98122 35991 ft 412 kts 336°
2026-05-04 15:12 35.87712 9.95982 35997 ft 411 kts 336°
2026-05-04 15:13 35.93158 9.93842 35997 ft 411 kts 336°
2026-05-04 15:13 35.98576 9.91719 35997 ft 411 kts 336°
2026-05-04 15:14 36.04021 9.89581 35995 ft 411 kts 336°
2026-05-04 15:14 36.09468 9.87441 36014 ft 411 kts 336°
2026-05-04 15:15 36.14910 9.85299 36016 ft 410 kts 336°
2026-05-04 15:15 36.20304 9.83163 36014 ft 410 kts 336°
2026-05-04 15:16 36.28464 9.79933 35999 ft 411 kts 336°
2026-05-04 15:17 36.36630 9.76698 36013 ft 411 kts 335°
2026-05-04 15:17 36.44759 9.73463 35998 ft 411 kts 335°
2026-05-04 15:18 36.50206 9.71303 35998 ft 411 kts 335°
2026-05-04 15:19 36.58381 9.68047 36000 ft 411 kts 335°
2026-05-04 15:19 36.66512 9.64801 36008 ft 411 kts 335°
2026-05-04 15:20 36.71956 9.62633 36004 ft 411 kts 335°
2026-05-04 15:20 36.77399 9.60460 36013 ft 411 kts 335°
2026-05-04 15:21 36.82839 9.58273 36004 ft 411 kts 335°
2026-05-04 15:22 36.90967 9.54999 36022 ft 411 kts 335°
2026-05-04 15:22 36.99125 9.51718 36029 ft 410 kts 335°
2026-05-04 15:23 37.04551 9.49513 36015 ft 410 kts 335°
2026-05-04 15:23 37.09939 9.47322 36027 ft 410 kts 335°
2026-05-04 15:24 37.20812 9.42929 36026 ft 411 kts 335°
2026-05-04 15:25 37.26252 9.40726 36024 ft 411 kts 335°
2026-05-04 15:26 37.34373 9.37414 36027 ft 411 kts 335°
2026-05-04 15:26 37.42532 9.34082 36034 ft 411 kts 335°
2026-05-04 15:27 37.50685 9.30740 36029 ft 411 kts 335°
2026-05-04 15:28 37.58804 9.27413 36028 ft 411 kts 335°
2026-05-04 15:29 37.66960 9.24071 36045 ft 411 kts 335°
2026-05-04 15:30 37.85926 9.16242 36055 ft 410 kts 335°
2026-05-04 15:31 37.94059 9.12887 36048 ft 410 kts 335°
2026-05-04 15:32 38.07569 9.07277 36040 ft 410 kts 334°
2026-05-04 15:34 38.21105 9.01638 36026 ft 411 kts 334°
2026-05-04 15:34 38.29263 8.98222 36028 ft 412 kts 334°
2026-05-04 15:35 38.37421 8.94805 36047 ft 411 kts 334°
2026-05-04 15:36 38.45540 8.91394 36049 ft 412 kts 335°
2026-05-04 15:36 38.48362 8.90604 36047 ft 422 kts 347°
2026-05-04 15:36 38.51336 8.90598 36049 ft 433 kts 360°
2026-05-04 15:37 38.54310 8.91449 36040 ft 445 kts 13°
2026-05-04 15:37 38.57129 8.93184 36053 ft 456 kts 27°
2026-05-04 15:37 38.62126 8.98292 36037 ft 461 kts 34°
2026-05-04 15:38 38.67039 9.03503 36032 ft 462 kts 34°
2026-05-04 15:38 38.71990 9.08762 36035 ft 463 kts 34°
2026-05-04 15:39 38.76936 9.14044 36065 ft 463 kts 34°
2026-05-04 15:40 38.84307 9.21934 36066 ft 462 kts 34°
2026-05-04 15:40 38.89241 9.27211 36059 ft 461 kts 34°
2026-05-04 15:41 38.94165 9.32492 36056 ft 461 kts 34°
2026-05-04 15:41 38.99082 9.37779 36069 ft 461 kts 34°
2026-05-04 15:42 39.03964 9.43044 36063 ft 461 kts 34°
2026-05-04 15:42 39.09330 9.47222 36056 ft 444 kts 13°
2026-05-04 15:43 39.15219 9.48794 36054 ft 425 kts 354°
2026-05-04 15:43 39.20940 9.47875 36074 ft 410 kts 339°
2026-05-04 15:44 39.26458 9.46198 36075 ft 410 kts 340°
2026-05-04 15:44 39.32021 9.44539 36065 ft 410 kts 340°
2026-05-04 15:45 39.37588 9.42866 36063 ft 411 kts 340°
2026-05-04 15:45 39.43157 9.41185 36079 ft 411 kts 340°
2026-05-04 15:46 39.48688 9.39512 36071 ft 411 kts 340°
2026-05-04 15:46 39.54256 9.37835 36058 ft 410 kts 340°
2026-05-04 15:47 39.59818 9.36160 36060 ft 411 kts 340°
2026-05-04 15:47 39.65384 9.34468 36077 ft 411 kts 340°
2026-05-04 15:48 39.70939 9.32775 36079 ft 410 kts 340°
2026-05-04 15:48 39.79226 9.30252 36074 ft 409 kts 340°
2026-05-04 15:49 39.84770 9.28566 36072 ft 409 kts 340°
2026-05-04 15:49 39.90313 9.26876 36080 ft 408 kts 339°
2026-05-04 15:50 39.95803 9.25199 36071 ft 408 kts 339°
2026-05-04 15:50 40.01332 9.23502 36063 ft 408 kts 339°
2026-05-04 15:51 40.06857 9.21802 36058 ft 408 kts 339°
2026-05-04 15:51 40.12378 9.20105 36069 ft 407 kts 339°
2026-05-04 15:52 40.17882 9.18408 36050 ft 407 kts 339°
2026-05-04 15:52 40.23364 9.16713 36046 ft 408 kts 339°
2026-05-04 15:53 40.28905 9.14999 36042 ft 409 kts 339°
2026-05-04 15:53 40.34452 9.13287 36044 ft 410 kts 339°
2026-05-04 15:54 40.39966 9.11577 36042 ft 410 kts 339°
2026-05-04 15:54 40.45520 9.09858 36047 ft 410 kts 339°
2026-05-04 15:55 40.51073 9.08129 36035 ft 411 kts 338°
2026-05-04 15:55 40.56645 9.06381 36043 ft 412 kts 338°
2026-05-04 15:56 40.62198 9.04638 36045 ft 413 kts 338°
2026-05-04 15:56 40.67795 9.02888 36042 ft 414 kts 339°
2026-05-04 15:57 40.73398 9.01138 36042 ft 414 kts 339°
2026-05-04 15:57 40.79000 8.99381 36071 ft 414 kts 338°
2026-05-04 15:58 40.84573 8.97622 36046 ft 415 kts 338°
2026-05-04 15:58 40.90200 8.95850 36038 ft 416 kts 338°
2026-05-04 15:59 40.95837 8.94066 36031 ft 416 kts 338°
2026-05-04 15:59 41.01472 8.92293 36045 ft 417 kts 338°
2026-05-04 16:00 41.07085 8.90527 36040 ft 418 kts 338°
2026-05-04 16:00 41.12744 8.88734 36043 ft 418 kts 338°
2026-05-04 16:01 41.18406 8.86934 36046 ft 418 kts 338°
2026-05-04 16:01 41.24066 8.85131 36068 ft 419 kts 337°
2026-05-04 16:02 41.29603 8.83073 36059 ft 414 kts 333°
2026-05-04 16:03 41.37736 8.79338 36056 ft 412 kts 332°
2026-05-04 16:03 41.43157 8.76838 36047 ft 413 kts 332°
2026-05-04 16:04 41.48601 8.74393 36071 ft 413 kts 332°
2026-05-04 16:04 41.56735 8.70771 36065 ft 413 kts 332°
2026-05-04 16:05 41.62187 8.68327 36033 ft 414 kts 332°
2026-05-04 16:06 41.70385 8.64623 36043 ft 415 kts 333°
2026-05-04 16:07 41.81326 8.59694 36038 ft 417 kts 333°
2026-05-04 16:08 41.92320 8.54722 36043 ft 418 kts 332°
2026-05-04 16:09 42.06071 8.48469 36037 ft 419 kts 332°
2026-05-04 16:10 42.17116 8.43418 36045 ft 420 kts 332°
2026-05-04 16:11 42.28143 8.38379 36039 ft 420 kts 332°
2026-05-04 16:12 42.36079 8.33812 36084 ft 409 kts 322°
2026-05-04 16:12 42.43627 8.28135 36494 ft 417 kts 322°
2026-05-04 16:13 42.48707 8.24323 36923 ft 417 kts 322°
2026-05-04 16:13 42.53753 8.20551 37360 ft 416 kts 322°
2026-05-04 16:14 42.58817 8.16744 37800 ft 415 kts 322°
2026-05-04 16:14 42.63865 8.12934 38037 ft 415 kts 322°
2026-05-04 16:16 42.76430 8.03417 38031 ft 415 kts 322°
2026-05-04 16:17 42.89057 7.93835 38047 ft 416 kts 322°
2026-05-04 16:18 42.99146 7.86138 38050 ft 417 kts 322°
2026-05-04 16:19 43.11803 7.76419 38042 ft 417 kts 322°
2026-05-04 16:20 43.24357 7.66703 38057 ft 417 kts 322°
2026-05-04 16:22 43.37006 7.56866 38049 ft 417 kts 321°
2026-05-04 16:23 43.52132 7.45041 38047 ft 418 kts 321°
2026-05-04 16:25 43.67123 7.32867 38063 ft 415 kts 318°
2026-05-04 16:26 43.83883 7.17245 38071 ft 416 kts 319°
2026-05-04 16:28 43.95900 7.06187 38071 ft 416 kts 318°
2026-05-04 16:29 44.12786 6.90742 38094 ft 422 kts 326°
2026-05-04 16:30 44.21557 6.87936 38115 ft 441 kts 347°
2026-05-04 16:31 44.27668 6.87025 38102 ft 441 kts 346°
2026-05-04 16:32 44.45976 6.84237 38132 ft 443 kts 347°
2026-05-04 16:33 44.58251 6.82372 38092 ft 444 kts 347°
2026-05-04 16:34 44.67439 6.80961 38097 ft 445 kts 347°
2026-05-04 16:35 44.85987 6.78445 38128 ft 449 kts 352°
2026-05-04 16:36 44.95315 6.78000 38142 ft 449 kts 352°
2026-05-04 16:37 45.04660 6.77433 38140 ft 448 kts 351°
2026-05-04 16:38 45.17097 6.76577 38012 ft 449 kts 351°
2026-05-04 16:39 45.26530 6.75938 34483 ft 458 kts 352°
2026-05-04 16:39 45.32869 6.75489 32330 ft 451 kts 349°
2026-05-04 16:40 45.38911 6.73978 30831 ft 429 kts 345°
2026-05-04 16:40 45.44567 6.72452 29843 ft 405 kts 345°
2026-05-04 16:41 45.49919 6.70997 28969 ft 379 kts 345°
2026-05-04 16:41 45.57623 6.68907 27678 ft 375 kts 346°
2026-05-04 16:42 45.65270 6.66945 26340 ft 373 kts 346°
2026-05-04 16:43 45.70372 6.65627 25413 ft 373 kts 346°
2026-05-04 16:43 45.75490 6.64294 24429 ft 374 kts 346°
2026-05-04 16:43 45.78052 6.63611 23931 ft 375 kts 346°
2026-05-04 16:44 45.88308 6.60820 21847 ft 373 kts 346°
2026-05-04 16:45 45.93358 6.59442 20870 ft 371 kts 345°
2026-05-04 16:46 46.00963 6.57387 19423 ft 371 kts 345°
2026-05-04 16:46 46.05530 6.54426 18482 ft 357 kts 315°
2026-05-04 16:47 46.08598 6.49016 17499 ft 346 kts 300°
2026-05-04 16:47 46.11262 6.43366 16730 ft 341 kts 300°
2026-05-04 16:48 46.15221 6.34951 15574 ft 333 kts 301°
2026-05-04 16:48 46.16567 6.32234 15184 ft 334 kts 309°
2026-05-04 16:49 46.20775 6.29677 14517 ft 344 kts
2026-05-04 16:49 46.24800 6.32750 14183 ft 333 kts 44°
2026-05-04 16:50 46.28029 6.37481 13513 ft 328 kts 45°
2026-05-04 16:50 46.31191 6.42195 12719 ft 327 kts 46°
2026-05-04 16:51 46.34361 6.46918 12039 ft 326 kts 46°
2026-05-04 16:51 46.35934 6.49251 11909 ft 322 kts 46°
2026-05-04 16:51 46.39003 6.53824 11661 ft 313 kts 46°
2026-05-04 16:52 46.42579 6.56477 11392 ft 279 kts 358°
2026-05-04 16:52 46.44412 6.56058 11264 ft 257 kts 333°
2026-05-04 16:53 46.46878 6.52927 10858 ft 230 kts 291°
2026-05-04 16:53 46.47069 6.46464 9813 ft 214 kts 250°
2026-05-04 16:54 46.46470 6.44529 9385 ft 209 kts 232°
2026-05-04 16:55 46.42527 6.38542 7771 ft 204 kts 224°
2026-05-04 16:55 46.40561 6.35625 6949 ft 202 kts 224°
2026-05-04 16:56 46.38444 6.32490 5424 ft 227 kts 223°
2026-05-04 16:56 46.35226 6.27726 4308 ft 207 kts 224°
2026-05-04 16:57 46.34258 6.26294 4040 ft 194 kts 223°
2026-05-04 16:57 46.32439 6.23608 3566 ft 177 kts 224°
2026-05-04 16:58 46.30098 6.20156 2898 ft 147 kts 224°
2026-05-04 16:58 46.29388 6.19110 2684 ft 145 kts 225°
2026-05-04 16:59 46.27982 6.17039 2265 ft 144 kts 225°
2026-05-04 17:00 46.25188 6.12932 1457 ft 143 kts 225°
2026-05-04 17:00 46.23808 6.10907 1380 ft 36 kts 225°
2026-05-04 17:01 46.23488 6.10687 1387 ft 14 kts 198°
2026-05-04 17:01 46.23333 6.10544 1398 ft 22 kts 226°
2026-05-04 17:02 46.23254 6.10563 1400 ft 13 kts 134°
2026-05-04 17:02 46.23139 6.10688 1394 ft 5 kts 137°
2026-05-04 17:03 46.23132 6.10698 1396 ft 2 kts 136°
2026-05-04 17:03 46.23129 6.10702 1396 ft 0 kts 136°